Погода в Дамаске

Сирия     33°31′26″N   36°19′06″E
темп.,
°C
ветер,
м/с
пор.,
м/с
влажн.,
%
обл.,
%
осадки,
мм/ч
давл.,
гПа
погр.,
м
21 апреля, ср
ср2100:00+23зсз342935 0.0 1012110
03:00+20св22390 0.0 101381
06:00+17в12565 0.0 101491
09:00+22ю12404 0.0 1015368
12:00+27ююв23235 0.0 10131214
15:00+30зсз361746 0.0 10112175
18:00+27сз451961 0.0 1012585
21:00+23зсз4623100 0.0 1014180
22 апреля, чт
чт2200:00+21сз1224100 0.0 1015112
03:00+18ссв12276 0.0 101664
06:00+15вюв0134100 0.0 101773
09:00+20ююв112378 0.0 1017363
12:00+24юв23151 0.0 10161165
15:00+27сз56120 0.0 10142144
18:00+25сз77150 0.0 1014720
21:00+20ссз34211 0.0 1016135
23 апреля, пт
пт2300:00+17св56350 0.0 1017213
03:00+16св12380 0.0 101778
06:00+14св23400 0.0 101886
09:00+20в23290 0.0 1017515
12:00+24в22190 0.0 10171097
15:00+27ююв12120 0.0 10141585
18:00+27с22130 0.0 10131074
21:00+23с22160 0.0 101453
24 апреля, сб
сб2400:00+21ссв122099 0.0 101548
03:00+20с1223100 0.0 101435
06:00+19ссв2222100 0.0 101436
09:00+23в4520100 0.0 1014559
12:00+27в431918 0.0 10131046
15:00+29всв23164 0.0 10101796
18:00+30св44170 0.0 1009959
21:00+26ссв34210 0.0 101091
25 апреля, вс
вс2500:00+24св472592 0.0 1011230
03:00+23ссв33264 0.0 101046
06:00+20всв22330 0.0 101038
09:00+25всв33253 0.0 1010484
12:00+29ююв25185 0.0 10081720
15:00+32юз8101499 0.0 10053169
18:00+28юз6623100 0.0 1005924
21:00+24зсз343899 0.0 1007149